Hourly Data Report for May 09, 2021

OTTAWA INTL A
ONTARIO
Current Station Operator: NAVCAN

45°19'00.000" N
75°40'00.000" W
114.90 m
6106001
71628
YOW

Download Data

Hourly Data (May 2021)
Hourly Data Report for May 9, 2021
TIME
LST
Temp Definition
°C
Dew Point Definition
°C
Rel Hum Definition
%
Precip. Amount Definition
mm

Wind Dir Definition
10's deg

Wind Spd Definition
km/h
Visibility Definition
km
Stn Press Definition
kPa
Hmdx Definition


Wind Chill Definition


Weather Definition


00:00 6.0 4.4 89   29 8 24.1 100.07     LegendNANA
01:00 5.4 4.4 93   27 14 24.1 100.10     Rain
02:00 5.3 4.3 93   29 17 24.1 100.08     LegendNANA
03:00 5.2 4.1 93   29 15 24.1 100.10     LegendNANA
04:00 5.0 3.8 92   30 16 24.1 100.11     Mostly Cloudy
05:00 4.9 3.5 91   30 16 24.1 100.16     LegendNANA
06:00 4.8 3.5 91   29 13 24.1 100.19     LegendNANA
07:00 6.6 4.0 83   33 9 24.1 100.18     Mainly Clear
08:00 8.5 4.5 76   28 11 24.1 100.18     LegendNANA
09:00 9.9 3.7 65   28 14 24.1 100.15     LegendNANA
10:00 12.4 4.5 58   27 14 24.1 100.13     Mainly Clear
11:00 12.5 3.9 55   30 13 24.1 100.07     LegendNANA
12:00 13.8 -0.1 38   30 10 24.1 99.98     LegendNANA
13:00 10.6 3.9 63   24 27 24.1 100.00     Mostly Cloudy
14:00 11.7 1.6 50   29 5 24.1 99.93     LegendNANA
15:00 11.9 3.6 57   1 5 24.1 99.87     LegendNANA
16:00 12.9 2.4 48   1 3 24.1 99.83     Mostly Cloudy
17:00 13.0 2.3 48   15 8 24.1 99.79     LegendNANA
18:00 12.3 2.3 50   17 12 24.1 99.77     LegendNANA
19:00 11.0 2.7 56   23 8 24.1 99.78     Mostly Cloudy
20:00 10.2 2.9 60   31 6 24.1 99.80     LegendNANA
21:00 9.4 3.4 66   32 5 24.1 99.81     LegendNANA
22:00 8.4 2.8 67   36 1 24.1 99.80     Mostly Cloudy
23:00 8.0 3.0 70   22 7 24.1 99.80     LegendNANA

Notes on Data Quality.

Legend

  • E = Estimated
  • M = Missing
  • NA = Not Available*
  • [empty] = Indicates an unobserved value
Date modified: